Natchitoches, LA

7:49 PM CST on February 22, 2017 (GMT -0600)
Natchitoches Regional

Weather History for KIER - February, 2014

Change the Weather History Date:

Thursday, February 27, 2014

  Actual Average Record
Temperature  
Mean Temperature 42 °F -  
Max Temperature 55 °F 65 °F 85 °F (1954)
Min Temperature 28 °F 41 °F 27 °F (1942)
Degree Days  
Heating Degree Days 24    
Moisture  
Dew Point 26 °F    
Average Humidity 65    
Maximum Humidity 99    
Minimum Humidity 23    
Precipitation  
Precipitation 0.00 in - - ()
Sea Level Pressure  
Sea Level Pressure 30.10 in    
Wind  
Wind Speed 2 mph (NNE)    
Max Wind Speed 8 mph    
Max Gust Speed -    
Visibility 10 miles    
Events      
Averages and records for this station are not official NWS values.
T = Trace of Precipitation, MM = Missing Value Source: NWS Daily Summary

Daily Weather History Graph

Daily Weather History Graph

Search for Another Location

Airport or City:

Trip Planner

Search our weather history database for the weather conditions in past years. The results will help you decide how hot, cold, wet, or windy it might be!

Date:

Astronomy

Feb. 27, 2014 Rise Set
Actual Time 6:41 AM CST 6:08 PM CST
Civil Twilight 6:17 AM CST 6:33 PM CST
Nautical Twilight 5:48 AM CST 7:01 PM CST
Astronomical Twilight 5:20 AM CST 7:29 PM CST
Moon 5:10 AM CST (2/27) 4:38 PM CST (2/27)
Length of Visible Light 12h 16m
Length of Day
11h 27m
Waning Crescent, 4% of the Moon is Illuminated
Feb 27
Waning Crescent
Mar 1
New
Mar 8
First Quarter
Mar 16
Full
Mar 23
Last Quarter

Hourly Weather History & Observations

Time (CST) Temp. Windchill Dew Point Humidity Pressure Visibility Wind Dir Wind Speed Gust Speed Precip Events Conditions
12:15 AM 31.1 °F - 30.0 °F 96% 30.14 in 10.0 mi Calm Calm - N/A   Clear
12:35 AM 30.6 °F - 29.8 °F 97% 30.15 in 10.0 mi Calm Calm - N/A   Clear
12:55 AM 29.3 °F - 28.9 °F 99% 30.15 in 10.0 mi Calm Calm - N/A   Clear
1:15 AM 29.8 °F - 29.1 °F 97% 30.15 in 10.0 mi Calm Calm - N/A   Clear
1:35 AM 29.7 °F - 29.3 °F 99% 30.15 in 7.0 mi Calm Calm - N/A   Clear
1:55 AM 29.3 °F - 28.9 °F 99% 30.15 in 10.0 mi Calm Calm - N/A   Clear
2:15 AM 28.9 °F - 28.4 °F 98% 30.14 in 10.0 mi Calm Calm - N/A   Clear
2:35 AM 28.8 °F - 28.4 °F 99% 30.14 in 10.0 mi Calm Calm - N/A   Clear
2:55 AM 28.4 °F - 28.2 °F 99% 30.14 in 10.0 mi Calm Calm - N/A   Clear
3:15 AM 29.5 °F - 29.3 °F 99% 30.14 in 10.0 mi Calm Calm - N/A   Clear
3:35 AM 29.8 °F - 28.8 °F 96% 30.14 in 10.0 mi Calm Calm - N/A   Clear
3:55 AM 28.9 °F - 28.2 °F 97% 30.14 in 10.0 mi Calm Calm - N/A   Clear
4:15 AM 28.6 °F - 28.2 °F 99% 30.14 in 10.0 mi Calm Calm - N/A   Clear
4:35 AM 28.2 °F 23.1 °F 27.3 °F 96% 30.14 in 10.0 mi NW 4.6 mph - N/A   Clear
4:55 AM 29.5 °F 24.5 °F 27.5 °F 92% 30.14 in 10.0 mi NW 4.6 mph - N/A   Clear
5:15 AM 29.1 °F 24.1 °F 27.3 °F 93% 30.14 in 10.0 mi NNW 4.6 mph - N/A   Clear
5:35 AM 29.1 °F 23.0 °F 27.0 °F 92% 30.15 in 10.0 mi North 5.8 mph - N/A   Clear
5:55 AM 29.8 °F 23.9 °F 26.6 °F 88% 30.16 in 10.0 mi NNW 5.8 mph - N/A   Clear
6:15 AM 29.7 °F 23.7 °F 25.7 °F 85% 30.16 in 10.0 mi NNW 5.8 mph - N/A   Clear
6:35 AM 28.4 °F 24.6 °F 24.8 °F 86% 30.16 in 10.0 mi NNW 3.5 mph - N/A   Clear
6:55 AM 29.7 °F 22.0 °F 24.3 °F 80% 30.17 in 10.0 mi NNW 8.1 mph - N/A   Clear
7:15 AM 30.9 °F 23.5 °F 24.1 °F 76% 30.17 in 10.0 mi NNW 8.1 mph - N/A   Clear
7:35 AM 32.0 °F 26.4 °F 25.0 °F 75% 30.17 in 10.0 mi NNW 5.8 mph - N/A   Clear
7:55 AM 32.4 °F 26.9 °F 23.9 °F 71% 30.18 in 10.0 mi North 5.8 mph - N/A   Clear
8:15 AM 34.2 °F 31.2 °F 24.4 °F 68% 30.18 in 10.0 mi North 3.5 mph - N/A   Clear
8:35 AM 35.8 °F - 25.7 °F 67% 30.18 in 10.0 mi Calm Calm - N/A   Clear
8:55 AM 37.9 °F - 25.7 °F 61% 30.18 in 10.0 mi Calm Calm - N/A   Clear
9:15 AM 39.2 °F 37.0 °F 25.5 °F 58% 30.19 in 10.0 mi North 3.5 mph - N/A   Clear
9:35 AM 41.5 °F 38.6 °F 22.8 °F 47% 30.19 in 10.0 mi NE 4.6 mph - N/A   Clear
9:55 AM 42.8 °F 40.1 °F 21.4 °F 43% 30.19 in 10.0 mi ENE 4.6 mph - N/A   Clear
10:15 AM 44.1 °F 42.5 °F 21.6 °F 41% 30.19 in 10.0 mi NNE 3.5 mph - N/A   Clear
10:35 AM 44.6 °F 43.1 °F 20.8 °F 39% 30.19 in 10.0 mi North 3.5 mph - N/A   Clear
10:55 AM 46.2 °F - 23.0 °F 40% 30.18 in 10.0 mi Calm Calm - N/A   Clear
11:15 AM 46.9 °F - 24.1 °F 41% 30.18 in 10.0 mi SE 3.5 mph - N/A   Clear
11:35 AM 47.5 °F - 23.9 °F 40% 30.17 in 10.0 mi NW 3.5 mph - N/A   Clear
11:55 AM 48.7 °F - 22.5 °F 36% 30.16 in 10.0 mi East 3.5 mph - N/A   Clear
12:15 PM 49.3 °F - 20.8 °F 33% 30.14 in 10.0 mi NNE 5.8 mph - N/A   Clear
12:35 PM 49.8 °F - 20.5 °F 32% 30.13 in 10.0 mi Calm Calm - N/A   Clear
12:55 PM 50.9 °F - 20.7 °F 30% 30.11 in 10.0 mi North 3.5 mph - N/A   Clear
1:15 PM 51.4 °F - 22.1 °F 32% 30.10 in 10.0 mi Calm Calm - N/A   Clear
1:35 PM 52.0 °F - 24.1 °F 34% 30.09 in 10.0 mi East 3.5 mph - N/A   Clear
1:55 PM 52.7 °F - 22.8 °F 31% 30.08 in 10.0 mi SSW 3.5 mph - N/A   Clear
2:15 PM 53.4 °F - 21.0 °F 28% 30.07 in 10.0 mi ESE 3.5 mph - N/A   Clear
2:35 PM 54.1 °F - 19.0 °F 25% 30.06 in 10.0 mi Calm Calm - N/A   Clear
2:55 PM 54.5 °F - 17.6 °F 23% 30.06 in 10.0 mi ESE 4.6 mph - N/A   Clear
3:20 PM 54.5 °F - 17.8 °F 24% 30.05 in 10.0 mi North 4.6 mph - N/A   Clear
3:35 PM 54.7 °F - 17.8 °F 24% 30.04 in 10.0 mi Calm Calm - N/A   Clear
3:55 PM 54.5 °F - 18.1 °F 24% 30.03 in 10.0 mi SE 3.5 mph - N/A   Clear
4:15 PM 55.4 °F - 20.8 °F 26% 30.03 in 10.0 mi Calm Calm - N/A   Clear
4:35 PM 54.3 °F - 20.8 °F 27% 30.02 in 10.0 mi Calm Calm - N/A   Clear
4:55 PM 54.7 °F - 22.5 °F 29% 30.02 in 10.0 mi Calm Calm - N/A   Clear
5:15 PM 53.6 °F - 19.9 °F 27% 30.02 in 10.0 mi ENE 3.5 mph - N/A   Clear
5:35 PM 52.7 °F - 19.2 °F 27% 30.02 in 10.0 mi Calm Calm - N/A   Clear
5:55 PM 51.1 °F - 21.0 °F 31% 30.01 in 10.0 mi East 4.6 mph - N/A   Clear
6:15 PM 50.2 °F - 22.8 °F 34% 30.01 in 10.0 mi ESE 3.5 mph - N/A   Clear
6:35 PM 48.7 °F - 23.5 °F 37% 30.01 in 10.0 mi Calm Calm - N/A   Clear
6:55 PM 43.2 °F - 30.0 °F 60% 30.00 in 10.0 mi Calm Calm - N/A   Clear
7:15 PM 41.0 °F - 36.1 °F 83% 30.01 in 10.0 mi Calm Calm - N/A   Clear
7:35 PM 40.1 °F - 32.4 °F 74% 30.02 in 10.0 mi Calm Calm - N/A   Clear
8:00 PM 38.7 °F - 33.1 °F 80% 30.03 in 10.0 mi Calm Calm - N/A   Clear
8:15 PM 37.9 °F - 31.8 °F 79% 30.02 in 10.0 mi Calm Calm - N/A   Clear
8:35 PM 37.0 °F - 32.9 °F 85% 30.03 in 10.0 mi Calm Calm - N/A   Clear
8:55 PM 36.5 °F - 31.5 °F 82% 30.03 in 10.0 mi Calm Calm - N/A   Clear
9:15 PM 35.6 °F - 31.6 °F 85% 30.03 in 10.0 mi Calm Calm - N/A   Clear
9:35 PM 35.2 °F - 31.8 °F 87% 30.03 in 10.0 mi Calm Calm - N/A   Clear
9:55 PM 34.7 °F - 31.1 °F 87% 30.02 in 10.0 mi Calm Calm - N/A   Clear
10:15 PM 34.0 °F 31.0 °F 31.8 °F 92% 30.02 in 10.0 mi SE 3.5 mph - N/A   Clear
10:35 PM 34.2 °F - 32.0 °F 92% 30.01 in 10.0 mi Calm Calm - N/A   Clear
10:55 PM 33.8 °F - 32.0 °F 93% 30.01 in 10.0 mi Calm Calm - N/A   Clear
11:15 PM 34.7 °F - 32.0 °F 90% 30.01 in 10.0 mi Calm Calm - N/A   Clear
11:35 PM 35.6 °F - 32.7 °F 89% 30.00 in 10.0 mi Calm Calm - N/A   Clear
11:55 PM 37.2 °F 33.6 °F 33.1 °F 85% 30.00 in 10.0 mi SSE 4.6 mph - N/A   Clear